Weather Roundup
Issued by NWS

Home | Current Version | Previous Version | Graphics & Text | Print | Product List | Glossary Off
Versions: 1 2 3 4 5 6 7 8 9 10 11 12 13 14 15 16 17 18 19 20 21 22 23 24 25 26 27 28 29 30 31 32 33 34 35 36 37 38 39 40 41 42 43 44 45 46 47 48 49 50

000
NZUS93 KARX 220210
HRRWXR

CURRENT HOURLY OBSERVATIONS ACROSS
MUCH OF THE UPPER MISSISSIPPI VALLEY
NATIONAL WEATHER SERVICE LA CROSSE WI
800 PM CST SUN DEC 21 2014


...SOUTHEAST MINNESOTA...


CITY           SKY/WX    TMP DP  RH WIND       PRES   REMARKS
ROCHESTER      LGT RAIN  37  35  92 S24G32    29.76S WCI  26
ROCHESTER/MAYO CLOUDY    37  36  95 S13G20    29.76S WCI  29
WINONA         CLOUDY    39  36  87 S9G18     29.82S WCI  33
AUSTIN         CLOUDY    37  36  93 S13G20    29.76S FOG     WCI  29
ALBERT LEA     CLOUDY    37  37 100 S14       29.74S FOG     WCI  29
DODGE CENTER   CLOUDY    37  37 100 S21G29    29.74R FOG     WCI  27
PRESTON        CLOUDY    35  34  96 S18G26    29.79S FOG     WCI  24
OWATONNA       LGT RAIN  37  36  93 S18G25    29.74S WCI  27
FARIBAULT      RAIN      37  36  93 S12       29.74S WCI  30
$$

...ELSEWHERE IN MINNESOTA...


CITY           SKY/WX    TMP DP  RH WIND       PRES   REMARKS
MINNEAPOLIS    LGT RAIN  37  35  92 SE9       29.74S FOG     WCI  30
INTNL FALLS    CLOUDY    32  30  92 SE9       29.68F FOG     WCI  24
DULUTH         CLOUDY    33  31  92 SE8       29.72S FOG     WCI  26
RED WING       DRIZZLE   39  36  87 S5        29.77S
REDWOOD FALLS  CLOUDY    38  36  92 S14       29.64S FOG     WCI  30
MANKATO        CLOUDY    37  34  87 S13       29.71S WCI  29
WORTHINGTON    CLOUDY    37 -11  12 S16       29.63F WCI  28
FAIRMONT       CLOUDY    37  34  87 S16       29.68S WCI  28
$$

...SOUTHWEST WISCONSIN...


CITY           SKY/WX    TMP DP  RH WIND       PRES   REMARKS
LA CROSSE      CLOUDY    39  35  86 S15G23    29.84R WCI  31
PRAIRIE DU CHI CLOUDY    37  33  84 SE7       29.89F WCI  32
BOSCOBEL       CLOUDY    38  32  79 S10       29.92F WCI  31
LONE ROCK      CLOUDY    40  31  70 S9        29.94F WCI  34
PLATTEVILLE    CLOUDY    35  32  89 SE17      29.94R WCI  25
FORT MC COY    CLOUDY    37  34  88 S13G21    29.87S WCI  29
CAMP DOUGLAS   CLOUDY    36  36 100 SE9       29.89F WCI  29
VIROQUA        CLOUDY    35  35 100 S16G23    29.86S WCI  25
WIS DELLS      CLOUDY    35  31  87 S22G28    29.91F WCI  23
$$

...ELSEWHERE IN WISCONSIN...


CITY           SKY/WX    TMP DP  RH WIND       PRES   REMARKS
MILWAUKEE      CLOUDY    36  29  75 SE13      30.05F WCI  27
MADISON        CLOUDY    36  30  79 S16G23    29.96F WCI  26
GREEN BAY      CLOUDY    36  31  82 S16       29.99F WCI  26
EAU CLAIRE     CLOUDY    37  34  89 S10       29.80S WCI  30
BLACK RVR FLS  CLOUDY    38  37  96 S7        29.84S WCI  33
MEDFORD        DRIZZLE   32  32  99 S15       29.83S WCI  22
WAUSAU         LGT SNOW  33  32  96 S14       29.87S FOG     WCI  23
WIS RAPIDS     MIX PCPN  35  32  88 S10       29.90F FOG     WCI  27
MARSHFIELD     MIX PCPN  34  33  96 S16       29.85F FOG     WCI  24
RICE LAKE      LGT RAIN  34  34  99 SE9       29.79S WCI  27
$$

...NORTHEAST IOWA...


CITY           SKY/WX    TMP DP  RH WIND       PRES   REMARKS
DECORAH        CLOUDY    36  36 100 S14       29.83F FOG     WCI  27
MASON CITY     CLOUDY    37  36  96 S13       29.77F FOG     WCI  29
CHARLES CITY   CLOUDY    37  37 100 S14       29.80F FOG     WCI  29
OELWEIN        CLOUDY    36  36 100 SE16      29.84F FOG     WCI  26
$$

...ELSEWHERE IN IOWA...


CITY           SKY/WX    TMP DP  RH WIND       PRES   REMARKS
DES MOINES     DRIZZLE   43  38  82 S15       29.79F
IOWA CITY      CLOUDY    38  35  89 SE15G22   29.91F WCI  29
FORT DODGE     CLOUDY    39  36  87 S12       29.74S WCI  32
$$

...NORTHERN ILLINOIS...


CITY           SKY/WX    TMP DP  RH WIND       PRES   REMARKS
CHICAGO-OHARE  CLOUDY    36  29  75 SE10      30.05F WCI  28
CHICAGO-MIDWAY CLOUDY    38  30  73 SE8       30.07F WCI  32
MOLINE         CLOUDY    36  31  82 SE14G23   29.96F WCI  27
ROCKFORD       CLOUDY    35  29  78 S14       30.02F WCI  26
PEORIA         CLOUDY    38  29  70 SE9       30.01F WCI  31
$$

NOTE: "FAIR" INDICATES FEW OR NO CLOUDS BELOW 12,000 FEET WITH NO
SIGNIFICANT WEATHER AND/OR OBSTRUCTIONS TO VISIBILITY. WIND
SPEEDS ARE IN MILES-PER-HOUR.



USA.gov is the U.S. government's official web portal to all federal, state and local government web resources and services.